Orange City, IA

3:38 PM CDT on April 25, 2017 (GMT -0500)
Orange City Municipal

Weather History for KORC - February, 2013

Change the Weather History Date:

Tuesday, February 5, 2013

  Actual Average Record
Temperature  
Mean Temperature 32 °F -  
Max Temperature 42 °F 30 °F 59 °F (2005)
Min Temperature 21 °F 13 °F -11 °F (2014)
Degree Days  
Heating Degree Days 34    
Moisture  
Dew Point 25 °F    
Average Humidity 78    
Maximum Humidity 93    
Minimum Humidity 57    
Precipitation  
Precipitation 0.00 in - - ()
Sea Level Pressure  
Sea Level Pressure 29.89 in    
Wind  
Wind Speed 10 mph (WNW)    
Max Wind Speed 17 mph    
Max Gust Speed 23 mph    
Visibility 10 miles    
Events      
Averages and records for this station are not official NWS values.
T = Trace of Precipitation, MM = Missing Value Source: NWS Daily Summary

Daily Weather History Graph

Daily Weather History Graph

Search for Another Location

Airport or City:

Trip Planner

Search our weather history database for the weather conditions in past years. The results will help you decide how hot, cold, wet, or windy it might be!

Date:

Astronomy

Feb. 05, 2013 Rise Set
Actual Time 7:34 AM CST 5:42 PM CST
Civil Twilight 7:04 AM CST 6:12 PM CST
Nautical Twilight 6:30 AM CST 6:46 PM CST
Astronomical Twilight 5:57 AM CST 7:19 PM CST
Moon 3:20 AM CST (2/5) 12:58 PM CST (2/5)
Length of Visible Light 11h 07m
Length of Day
10h 08m
Waning Crescent, 26% of the Moon is Illuminated
Feb 5
Waning Crescent
Feb 10
New
Feb 17
First Quarter
Feb 25
Full
Mar 4
Last Quarter

Hourly Weather History & Observations

Time (CST) Temp. Windchill Dew Point Humidity Pressure Visibility Wind Dir Wind Speed Gust Speed Precip Events Conditions
12:15 AM 23.0 °F 12.4 °F 19.4 °F 86% 29.78 in 10.0 mi SSW 10.4 mph - N/A   Overcast
12:35 AM 21.2 °F 9.5 °F 19.4 °F 93% 29.76 in 10.0 mi SSW 11.5 mph - N/A   Scattered Clouds
12:55 AM 21.2 °F 9.5 °F 19.4 °F 93% 29.75 in 10.0 mi SSW 11.5 mph - N/A   Clear
1:15 AM 21.2 °F 10.9 °F 19.4 °F 93% 29.75 in 10.0 mi SSW 9.2 mph - N/A   Clear
1:35 AM 21.2 °F 10.1 °F 19.4 °F 93% 29.74 in 10.0 mi SSW 10.4 mph - N/A   Clear
1:55 AM 23.0 °F 11.1 °F 19.4 °F 86% 29.73 in 10.0 mi SSW 12.7 mph - N/A   Clear
2:15 AM 23.0 °F 10.1 °F 19.4 °F 86% 29.74 in 10.0 mi SSW 15.0 mph - N/A   Clear
2:35 AM 23.0 °F 10.6 °F 19.4 °F 86% 29.74 in 10.0 mi SSW 13.8 mph - N/A   Clear
2:55 AM 23.0 °F 10.1 °F 21.2 °F 93% 29.73 in 7.0 mi SSW 15.0 mph - N/A   Clear
3:15 AM 24.8 °F 13.4 °F 21.2 °F 86% 29.73 in 10.0 mi SW 12.7 mph - N/A   Clear
3:35 AM 24.8 °F 14.6 °F 21.2 °F 86% 29.72 in 10.0 mi SSW 10.4 mph - N/A   Scattered Clouds
3:55 AM 23.0 °F 15.8 °F 21.2 °F 93% 29.73 in 10.0 mi SW 5.8 mph - N/A   Scattered Clouds
4:15 AM 24.8 °F 15.3 °F 21.2 °F 86% 29.73 in 10.0 mi SW 9.2 mph - N/A   Clear
4:35 AM 24.8 °F 16.1 °F 21.2 °F 86% 29.72 in 10.0 mi SW 8.1 mph - N/A   Scattered Clouds
4:55 AM 23.0 °F 15.8 °F 19.4 °F 86% 29.73 in 10.0 mi SSW 5.8 mph - N/A   Mostly Cloudy
5:15 AM 24.8 °F 15.3 °F 21.2 °F 86% 29.73 in 10.0 mi WSW 9.2 mph - N/A   Scattered Clouds
5:35 AM 24.8 °F 17.9 °F 19.4 °F 80% 29.73 in 10.0 mi WSW 5.8 mph - N/A   Clear
5:55 AM 24.8 °F 16.1 °F 21.2 °F 86% 29.74 in 10.0 mi West 8.1 mph - N/A   Clear
6:15 AM 24.8 °F 16.1 °F 21.2 °F 86% 29.74 in 10.0 mi West 8.1 mph - N/A   Clear
6:35 AM 26.6 °F 17.5 °F 21.2 °F 80% 29.75 in 10.0 mi West 9.2 mph - N/A   Clear
6:55 AM 26.6 °F 17.5 °F 21.2 °F 80% 29.75 in 10.0 mi West 9.2 mph - N/A   Clear
7:15 AM 28.4 °F 19.1 °F 21.2 °F 74% 29.76 in 10.0 mi WNW 10.4 mph - N/A   Clear
7:35 AM 26.6 °F 16.8 °F 21.2 °F 80% 29.78 in 10.0 mi NW 10.4 mph - N/A   Clear
7:55 AM 28.4 °F 19.7 °F 23.0 °F 80% 29.79 in 10.0 mi NW 9.2 mph - N/A   Clear
8:15 AM 28.4 °F 19.7 °F 24.8 °F 86% 29.80 in 10.0 mi NW 9.2 mph - N/A   Clear
8:35 AM 30.2 °F 20.2 °F 24.8 °F 80% 29.82 in 10.0 mi NW 12.7 mph - N/A   Clear
8:55 AM 32.0 °F 22.5 °F 26.6 °F 80% 29.84 in 10.0 mi NW 12.7 mph - N/A   Clear
9:15 AM 33.8 °F 25.3 °F 26.6 °F 75% 29.85 in 10.0 mi NW 11.5 mph - N/A   Clear
9:35 AM 35.6 °F 26.6 °F 28.4 °F 75% 29.86 in 10.0 mi NW 13.8 mph 19.6 mph N/A   Clear
9:55 AM 35.6 °F 26.6 °F 28.4 °F 75% 29.87 in 10.0 mi NNW 13.8 mph 19.6 mph N/A   Clear
10:15 AM 37.4 °F 29.3 °F 28.4 °F 70% 29.88 in 10.0 mi NNW 12.7 mph 19.6 mph N/A   Clear
10:35 AM 37.4 °F 28.2 °F 28.4 °F 70% 29.89 in 10.0 mi NW 16.1 mph - N/A   Clear
10:55 AM 39.2 °F 30.8 °F 28.4 °F 65% 29.91 in 10.0 mi NW 15.0 mph 19.6 mph N/A   Clear
11:15 AM 39.2 °F 30.8 °F 28.4 °F 65% 29.92 in 10.0 mi NNW 15.0 mph 23.0 mph N/A   Clear
11:35 AM 39.2 °F 31.2 °F 28.4 °F 65% 29.93 in 10.0 mi NNW 13.8 mph - N/A   Clear
11:55 AM 39.2 °F 30.5 °F 28.4 °F 65% 29.93 in 10.0 mi NNW 16.1 mph 23.0 mph N/A   Clear
12:15 PM 39.2 °F 30.2 °F 26.6 °F 61% 29.94 in 10.0 mi NNW 17.3 mph 20.7 mph N/A   Clear
12:35 PM 41.0 °F 33.5 °F 28.4 °F 61% 29.94 in 10.0 mi NW 13.8 mph 21.9 mph N/A   Clear
12:55 PM 41.0 °F 33.1 °F 28.4 °F 61% 29.94 in 10.0 mi NW 15.0 mph 19.6 mph N/A   Clear
1:15 PM 42.8 °F 35.4 °F 28.4 °F 57% 29.94 in 10.0 mi NW 15.0 mph 18.4 mph N/A   Clear
1:35 PM 41.0 °F 33.1 °F 28.4 °F 61% 29.95 in 10.0 mi NW 15.0 mph - N/A   Scattered Clouds
1:55 PM 41.0 °F 32.8 °F 28.4 °F 61% 29.95 in 10.0 mi NW 16.1 mph - N/A   Scattered Clouds
2:15 PM 42.8 °F 36.6 °F 28.4 °F 57% 29.96 in 10.0 mi NW 11.5 mph 18.4 mph N/A   Mostly Cloudy
2:35 PM 41.0 °F 33.9 °F 26.6 °F 57% 29.96 in 10.0 mi NW 12.7 mph 16.1 mph N/A   Mostly Cloudy
2:55 PM 39.2 °F 32.0 °F 28.4 °F 65% 29.96 in 10.0 mi NW 11.5 mph 17.3 mph N/A   Scattered Clouds
3:15 PM 41.0 °F 33.5 °F 28.4 °F 61% 29.96 in 10.0 mi NW 13.8 mph 20.7 mph N/A   Scattered Clouds
3:35 PM 37.4 °F 30.3 °F 28.4 °F 70% 29.98 in 10.0 mi NNW 10.4 mph - N/A   Mostly Cloudy
3:55 PM 37.4 °F 30.8 °F 28.4 °F 70% 29.99 in 10.0 mi North 9.2 mph 18.4 mph N/A   Scattered Clouds
4:15 PM 37.4 °F 29.3 °F 28.4 °F 70% 29.99 in 10.0 mi NNW 12.7 mph - N/A   Mostly Cloudy
4:35 PM 35.6 °F 27.5 °F 28.4 °F 75% 29.99 in 10.0 mi NNW 11.5 mph 16.1 mph N/A   Overcast
4:55 PM 35.6 °F 29.2 °F 28.4 °F 75% 30.00 in 10.0 mi NNW 8.1 mph - N/A   Overcast
5:15 PM 35.6 °F 30.7 °F 28.4 °F 75% 30.00 in 10.0 mi North 5.8 mph - N/A   Overcast
5:35 PM 35.6 °F 31.7 °F 28.4 °F 75% 30.00 in 10.0 mi NNW 4.6 mph - N/A   Overcast
5:55 PM 33.8 °F 28.6 °F 28.4 °F 81% 30.01 in 10.0 mi NNW 5.8 mph - N/A   Overcast
6:15 PM 33.8 °F 27.0 °F 26.6 °F 75% 30.01 in 10.0 mi NW 8.1 mph - N/A   Mostly Cloudy
6:35 PM 32.0 °F 27.5 °F 26.6 °F 80% 30.02 in 10.0 mi NW 4.6 mph - N/A   Scattered Clouds
6:55 PM 32.0 °F 27.5 °F 26.6 °F 80% 30.02 in 10.0 mi North 4.6 mph - N/A   Clear
7:15 PM 32.0 °F - 26.6 °F 80% 30.02 in 10.0 mi Calm Calm - N/A   Clear
7:35 PM 32.0 °F - 26.6 °F 80% 30.02 in 10.0 mi Calm Calm - N/A   Clear
7:55 PM 30.2 °F - 26.6 °F 86% 30.03 in 10.0 mi Calm Calm - N/A   Clear
8:15 PM 28.4 °F - 24.8 °F 86% 30.04 in 10.0 mi Calm Calm - N/A   Clear
8:35 PM 32.0 °F 27.5 °F 26.6 °F 80% 30.04 in 10.0 mi North 4.6 mph - N/A   Clear
9:15 PM 30.2 °F 26.7 °F 24.8 °F 80% 30.04 in 10.0 mi NE 3.5 mph - N/A   Clear
9:35 PM 28.4 °F - 24.8 °F 86% 30.04 in 10.0 mi Calm Calm - N/A   Clear
9:55 PM 28.4 °F - 24.8 °F 86% 30.05 in 10.0 mi Calm Calm - N/A   Clear
10:15 PM 26.6 °F - 24.8 °F 93% 30.05 in 10.0 mi Calm Calm - N/A   Clear
10:35 PM 26.6 °F - 24.8 °F 93% 30.06 in 7.0 mi Calm Calm - N/A   Clear
10:55 PM 26.6 °F 22.6 °F 24.8 °F 93% 30.04 in 7.0 mi East 3.5 mph - N/A   Clear
11:15 PM 26.6 °F 21.2 °F 24.8 °F 93% 30.04 in 7.0 mi ENE 4.6 mph - N/A   Clear
11:35 PM 26.6 °F 22.6 °F 23.0 °F 86% 30.03 in 7.0 mi ENE 3.5 mph - N/A   Clear
11:55 PM 24.8 °F 19.1 °F 21.2 °F 86% 30.02 in 7.0 mi East 4.6 mph - N/A   Clear